Regional Weather Roundup
Issued by NWS

Home | Current Version | Previous Version | Graphics & Text | Print | Product List | Glossary On
Versions: 1 2 3 4 5 6 7 8 9 10 11 12 13 14 15 16 17 18 19 20 21 22 23 24 25 26 27 28 29 30 31 32 33 34 35 36 37 38 39 40 41 42 43 44 45 46 47 48 49 50
000
ASUS43 KLSX 230610
RWRMO

WEATHER SUMMARY FOR MISSOURI
NATIONAL WEATHER SERVICE SPRINGFIELD MO
100 AM CDT MON APR 23 2018

NOTE: "FAIR" INDICATES FEW OR NO CLOUDS BELOW 12,000 FEET WITH NO
       SIGNIFICANT WEATHER AND/OR OBSTRUCTIONS TO VISIBILITY.
       CURRENT SKY AND/OR WEATHER CONDITIONS ARE NOT AVAILABLE FOR
       CHILLICOTHE AND FARMINGTON.

MOZ001>031-035>038-043-044-053-054-230700-
...NORTHERN AND WESTERN MISSOURI...

CITY           SKY/WX    TMP DP  RH WIND       PRES   REMARKS
KANSAS CTY INT PTCLDY    54  35  48 NE10      30.10S
6HR MIN TEMP:  54; 6HR MAX TEMP:  65;

KANSAS C DTWN  CLOUDY    60  32  34 NE9       30.09S
6HR MIN TEMP:  60; 6HR MAX TEMP:  66;

LEE`S SUMMIT   CLOUDY    57  33  40 NE9       30.08F
6HR MIN TEMP:  56; 6HR MAX TEMP:  61;

ST JOSEPH      MOCLDY    58  32  37 NE7       30.12S
6HR MIN TEMP:  58; 6HR MAX TEMP:  68;

CHILLICOTHE      N/A     59  25  27 NE8       30.12S
6HR MIN TEMP:  57; 6HR MAX TEMP:  65;

KIRKSVILLE     CLOUDY    55  31  39 NE10      30.12S
6HR MIN TEMP:  55; 6HR MAX TEMP:  61;


$$
MOZ066>068-077>081-088>096-101>105-230700-
...SOUTHWEST MISSOURI...

CITY           SKY/WX    TMP DP  RH WIND       PRES   REMARKS
SPRINGFIELD    CLOUDY    50  48  93 N13       29.96F
6HR MIN TEMP:  50; 6HR MAX TEMP:  53; 6HR PCP:  0.03;

JOPLIN         CLOUDY    51  49  92 NE9G18    30.01R
6HR MIN TEMP:  51; 6HR MAX TEMP:  57;

BRANSON        CLOUDY    50  50 100 NW7       29.95S

$$
MOZ032>034-039>042-045>050-055>058-069>072-230700-
...CENTRAL MISSOURI...

CITY           SKY/WX    TMP DP  RH WIND       PRES   REMARKS
COLUMBIA       CLOUDY    56  41  57 E14       30.05R
6HR MIN TEMP:  55; 6HR MAX TEMP:  58; 6HR PCP: TRACE;

JEFFERSON CITY CLOUDY    58  49  72 E16G24    30.04R
6HR MIN TEMP:  54; 6HR MAX TEMP:  60; 6HR PCP:  0.01;

ROLLA          LGT RAIN  53  51  93 NE13      30.00S
6HR MIN TEMP:  49; 6HR MAX TEMP:  53; 6HR PCP:  0.09;

SEDALIA        CLOUDY    56  42  59 N9        30.05S
6HR MIN TEMP:  56; 6HR MAX TEMP:  59;

WHITEMAN AFB   CLOUDY    55  39  55 N8        30.01F
WARRENSBURG    CLOUDY    54  36  50 N9        30.06F
OSAGE BEACH    CLOUDY    53  48  83 NE10      30.01F

$$
MOZ051-052-059>065-230700-
...EAST CENTRAL MISSOURI...

CITY           SKY/WX    TMP DP  RH WIND       PRES   REMARKS
ST LOUIS INTL  CLOUDY    58  43  57 NE9       30.04S
6HR MIN TEMP:  58; 6HR MAX TEMP:  61; 6HR PCP: TRACE;

SPIRIT OF STL  CLOUDY    57  48  72 NE7       30.02F
6HR MIN TEMP:  56; 6HR MAX TEMP:  58; 6HR PCP: TRACE;

ST CHARLES     CLOUDY    58  42  55 NE9       30.03F
6HR MIN TEMP:  57; 6HR MAX TEMP:  60; 6HR PCP:  0.02;


$$
MOZ072>076-082>087-097>100-106>115-230700-
...SOUTH CENTRAL AND SOUTHEAST MISSOURI...

CITY           SKY/WX    TMP DP  RH WIND       PRES   REMARKS
CAPE GIRARDEAU RAIN      58  56  93 NE16G26   29.87F FOG
6HR MIN TEMP:  58; 6HR MAX TEMP:  59; 6HR PCP:  0.76;

FARMINGTON     LGT RAIN  55  54  94 NE15G25   29.96F
6HR MIN TEMP:  52; 6HR MAX TEMP:  56; 6HR PCP:  0.28;

POPLAR BLUFF   LGT RAIN  57  57 100 NE10      29.85F
6HR MIN TEMP:  58; 6HR MAX TEMP:  59; 6HR PCP:  0.23;

WEST PLAINS    LGT RAIN  53  52  96 N12       29.92S
6HR MIN TEMP:  52; 6HR MAX TEMP:  54; 6HR PCP:  0.11;


$$



USA.gov is the U.S. government's official web portal to all federal, state and local government web resources and services.